This demonstration page uses our WeatherBlox Daily Observations layout. Learn more.

Left ArrowRight Arrow

40.92945, -100.16068

Hourly Observations for February 12, 2022

Temp ( °F °C ) Dew Point ( °F °C ) Humidity (%) Winds ( mph kmh ) Pressure ( in mb ) Visibility ( mi km ) Precip ( " mm )
12:15 am 00:15 Clear 11 -11.8 6 -14.5 81 81 NW 10 17 30.66 1038 10 16 0.00 0.00
12:35 am 00:35 Clear 10 -12 6 -14.7 81 81 NW 8 13 30.68 1039 10 16 0.00 0.00
12:55 am 00:55 Mostly Cloudy 13 -10.5 8 -13.6 78 78 NW 8 13 30.66 1038 10 16 0.00 0.00
1:15 am 01:15 Cloudy 15 -9.3 9 -12.7 77 77 NNW 8 13 30.65 1038 10 16 0.00 0.00
1:35 am 01:35 Cloudy 16 -9 9 -12.8 74 74 NNW 5 7 30.64 1038 10 16 0.00 0.00
1:55 am 01:55 Cloudy 17 -8.6 9 -13 71 71 NW 7 11 30.64 1038 10 16 0.00 0.00
2:15 am 02:15 Cloudy 16 -8.9 9 -13 72 72 NW 6 9 30.64 1038 10 16 0.00 0.00
2:35 am 02:35 Partly Cloudy 13 -10.6 7 -14.1 76 76 NW 7 11 30.66 1038 10 16 0.00 0.00
2:55 am 02:55 Clear 13 -10.8 7 -14 78 78 Calm 30.65 1038 10 16 0.00 0.00
3:15 am 03:15 Clear 11 -11.8 6 -14.7 79 79 W 5 7 30.66 1038 10 16 0.00 0.00
3:35 am 03:35 Clear 10 -12.3 5 -15.1 80 80 W 6 9 30.67 1039 10 16 0.00 0.00
3:55 am 03:55 Partly Cloudy 9 -12.7 4 -15.3 81 81 W 6 9 30.66 1038 10 16 0.00 0.00
4:15 am 04:15 Mostly Cloudy 10 -12.1 6 -14.7 81 81 W 7 11 30.65 1038 10 16 0.00 0.00
4:35 am 04:35 Cloudy 14 -9.9 9 -12.7 80 80 W 5 7 30.62 1037 10 16 0.00 0.00
4:55 am 04:55 Cloudy 15 -9.6 10 -12.5 80 80 Calm 30.61 1037 10 16 0.00 0.00
5:15 am 05:15 Cloudy 15 -9.3 10 -12.2 80 80 Calm 30.61 1036 10 16 0.00 0.00
5:35 am 05:35 Cloudy 16 -8.8 11 -11.8 79 79 W 5 7 30.60 1036 10 16 0.00 0.00
5:55 am 05:55 Cloudy 18 -8 12 -11.3 77 77 Calm 30.59 1036 10 16 0.00 0.00
6:15 am 06:15 Cloudy 18 -7.9 12 -11 79 79 SW 3 6 30.59 1036 10 16 0.00 0.00
6:35 am 06:35 Cloudy 19 -7.5 13 -10.6 79 79 W 5 7 30.58 1035 10 16 0.00 0.00
6:55 am 06:55 Cloudy 19 -7.3 13 -10.5 78 78 Calm 30.56 1035 10 16 0.00 0.00
7:15 am 07:15 Cloudy 19 -7.3 13 -10.5 78 78 Calm 30.56 1035 10 16 0.00 0.00
7:35 am 07:35 Mostly Cloudy 17 -8.1 12 -11.1 79 79 SW 5 7 30.57 1035 10 16 0.00 0.00
7:55 am 07:55 Partly Cloudy 16 -8.8 11 -11.5 81 81 Calm 30.57 1035 10 16 0.00 0.00
8:15 am 08:15 Partly Cloudy 17 -8.6 12 -11.3 81 81 Calm 30.57 1035 10 16 0.00 0.00
8:35 am 08:35 Mostly Cloudy 16 -9 11 -11.5 82 82 Calm 30.57 1035 10 16 0.00 0.00
8:55 am 08:55 Partly Cloudy 19 -7.1 13 -10.4 78 78 Calm 30.55 1035 10 16 0.00 0.00
9:15 am 09:15 Sunny 23 -5.2 15 -9.5 72 72 W 6 9 30.52 1034 10 16 0.00 0.00
9:35 am 09:35 Sunny 25 -3.9 16 -9 68 68 WNW 10 17 30.51 1033 10 16 0.00 0.00
9:55 am 09:55 Sunny 28 -2.4 17 -8.6 63 63 WNW 14 22 30.50 1033 10 16 0.00 0.00
10:15 am 10:15 Sunny 30 -1.1 17 -8.3 58 58 WNW 15 24 30.49 1032 10 16 0.00 0.00
10:35 am 10:35 Sunny 32 -0.2 18 -7.9 57 57 NW 15 24 30.48 1032 10 16 0.00 0.00
10:55 am 10:55 Sunny 32 0.2 18 -7.8 55 55 NW 10 17 30.47 1032 10 16 0.00 0.00
11:15 am 11:15 Sunny 33 0.6 18 -7.9 53 53 WNW 9 15 30.45 1031 10 16 0.00 0.00
11:35 am 11:35 Sunny 35 1.7 17 -8.1 49 49 NW 8 13 30.43 1031 10 16 0.00 0.00
11:55 am 11:55 Sunny 36 2 17 -8.5 46 46 W 12 19 30.42 1030 10 16 0.00 0.00
12:15 pm 12:15 Partly Cloudy 37 2.7 16 -9 42 42 W 12 19 30.40 1029 10 16 0.00 0.00
12:35 pm 12:35 Sunny 37 2.8 15 -9.7 40 40 WNW 14 22 30.38 1029 10 16 0.00 0.00
12:55 pm 12:55 Sunny 38 3.1 13 -10.4 37 37 WNW 10 17 30.36 1028 10 16 0.00 0.00
1:15 pm 13:15 Sunny 38 3.2 13 -10.8 35 35 NW 14 22 30.35 1028 10 16 0.00 0.00
1:35 pm 13:35 Sunny 39 3.8 11 -11.6 32 32 WNW 16 26 30.33 1027 10 16 0.00 0.00
1:55 pm 13:55 Sunny 40 4.4 8 -13.5 26 26 WNW 16 26 30.31 1027 10 16 0.00 0.00
2:15 pm 14:15 Sunny 40 4.5 7 -13.8 25 25 WNW 20 31 30.30 1026 10 16 0.00 0.00
2:35 pm 14:35 Partly Cloudy 40 4.5 4 -15.3 22 22 NW 13 20 30.29 1026 10 16 0.00 0.00
2:55 pm 14:55 Partly Cloudy 40 4.6 4 -15.3 22 22 NW 13 20 30.27 1025 10 16 0.00 0.00
3:15 pm 15:15 Sunny 42 5.8 5 -15 21 21 WNW 16 26 30.26 1025 10 16 0.00 0.00
3:35 pm 15:35 Partly Cloudy 42 5.3 3 -16 20 20 WNW 15 24 30.27 1025 10 16 0.00 0.00
3:55 pm 15:55 Partly Cloudy 42 5.7 3 -15.9 20 20 WNW 14 22 30.26 1025 10 16 0.00 0.00
4:15 pm 16:15 Sunny 43 5.9 2 -16.5 18 18 NW 13 20 30.25 1024 10 16 0.00 0.00
4:35 pm 16:35 Sunny 42 5.6 2 -16.5 19 19 NW 13 20 30.24 1024 10 16 0.00 0.00
4:55 pm 16:55 Partly Cloudy 42 5.6 2 -16.5 19 19 WNW 13 20 30.23 1024 10 16 0.00 0.00
5:15 pm 17:15 Partly Cloudy 42 5.6 3 -16.2 19 19 WNW 12 19 30.23 1024 10 16 0.00 0.00
5:35 pm 17:35 Partly Cloudy 41 5 4 -15.7 21 21 W 8 13 30.23 1024 10 16 0.00 0.00
5:55 pm 17:55 Mostly Cloudy 40 4.7 4 -15.5 22 22 W 8 13 30.23 1024 10 16 0.00 0.00
6:15 pm 18:15 Cloudy 38 3.6 5 -15.1 24 24 WSW 5 7 30.23 1024 10 16 0.00 0.00
6:35 pm 18:35 Cloudy 37 2.6 5 -15.1 26 26 SW 6 9 30.24 1024 10 16 0.00 0.00
6:55 pm 18:55 Mostly Cloudy 36 2.4 5 -15 27 27 SW 8 13 30.23 1024 10 16 0.00 0.00
7:15 pm 19:15 Mostly Cloudy 36 2.3 6 -14.7 27 27 SW 8 13 30.22 1024 10 16 0.00 0.00
7:35 pm 19:35 Cloudy 36 2.1 8 -13.6 31 31 SW 8 13 30.22 1023 10 16 0.00 0.00
7:55 pm 19:55 Cloudy 37 2.8 8 -13.1 30 30 WSW 9 15 30.20 1023 10 16 0.00 0.00
8:15 pm 20:15 Cloudy 38 3.3 9 -13 29 29 WSW 8 13 30.19 1023 10 16 0.00 0.00
8:35 pm 20:35 Cloudy 39 3.9 8 -13.1 28 28 WSW 12 19 30.19 1022 10 16 0.00 0.00
8:55 pm 20:55 Cloudy 40 4.5 8 -13.4 26 26 W 15 24 30.18 1022 10 16 0.00 0.00
9:15 pm 21:15 Cloudy 40 4.5 8 -13.5 26 26 W 15 24 30.19 1022 10 16 0.00 0.00
9:35 pm 21:35 Cloudy 41 4.8 9 -13 26 26 W 14 22 30.20 1023 10 16 0.00 0.00
9:55 pm 21:55 Cloudy 41 4.8 10 -12.5 28 28 NW 18 30 30.22 1023 10 16 0.00 0.00
10:15 pm 22:15 Cloudy 43 6.1 10 -12 26 26 NW 17 28 30.22 1023 10 16 0.00 0.00
10:35 pm 22:35 Mostly Cloudy 42 5.4 11 -11.9 28 28 NNW 23 37 30.23 1024 10 16 0.00 0.00
10:55 pm 22:55 Mostly Cloudy 40 4.7 11 -11.4 30 30 N 26 43 30.25 1024 10 16 0.00 0.00
11:15 pm 23:15 Partly Cloudy 39 3.8 13 -10.7 34 34 NNW 17 28 30.27 1025 10 16 0.00 0.00
11:35 pm 23:35 Clear 37 2.9 13 -10.4 37 37 NNW 14 22 30.28 1025 10 16 0.00 0.00
11:55 pm 23:55 Clear 36 2.2 14 -10 40 40 NNW 15 24 30.30 1026 10 16 0.00 0.00

Powered by AerisWeather